User: anonymous   Login
Location: Unspecified
(0.0000°N, 0.0000°E)
Time: 08:50:59
(UTC+00:00)
Language:

NOSS 8 (E) - Orbit

View from above orbital plane
View from above orbital plane
View from above satellite
View from above satellite

Ground track
Ground track

The orbit data is extracted from the following two-line orbital elements,

1 18009U 87043E   18322.70885105 0.00000700  00000-0  80543-4 0    04
2 18009  63.3021 203.5619 0899297  54.6036 305.3964 13.45274333    04
Epoch (UTC): 18 November 2018 17:00:44
Eccentricity: 0.0899297
inclination: 63.3021°
perigee height: 418 km
apogee height: 1761 km
right ascension of ascending node: 203.5619°
argument of perigee: 54.6036°
revolutions per day: 13.45274333
mean anomaly at epoch: 305.3964°
orbit number at epoch: 0

The dashed part of the orbit path shows where the satellite is in the earth's shadow,  

DLR